Inverness, FL

11:24 PM EDT on July 20, 2017 (GMT -0400)
Inverness

Weather History for KINF - January, 2014

Change the Weather History Date:

Thursday, January 30, 2014

  Actual Average (KBKV) Record (KBKV)
Temperature  
Mean Temperature 40 °F -  
Max Temperature 44 °F 67 °F 84 °F (2002)
Min Temperature 37 °F 44 °F 30 °F (2007)
Degree Days  
Heating Degree Days 24    
Moisture  
Dew Point 41 °F    
Average Humidity 97    
Maximum Humidity 100    
Minimum Humidity 93    
Precipitation  
Precipitation 0.40 in - - ()
Sea Level Pressure  
Sea Level Pressure 30.19 in    
Wind  
Wind Speed 8 mph (NNE)    
Max Wind Speed 12 mph    
Max Gust Speed 17 mph    
Visibility 8 miles    
Events Rain    
Averages and records for this station are not official NWS values.
T = Trace of Precipitation, MM = Missing Value Source: NWS Daily Summary

Daily Weather History Graph

Daily Weather History Graph

Search for Another Location

Airport or City:

Trip Planner

Search our weather history database for the weather conditions in past years. The results will help you decide how hot, cold, wet, or windy it might be!

Date:

Astronomy

Jan. 30, 2014 Rise Set
Actual Time 7:18 AM EST 6:06 PM EST
Civil Twilight 6:53 AM EST 6:31 PM EST
Nautical Twilight 6:25 AM EST 7:00 PM EST
Astronomical Twilight 5:57 AM EST 7:28 PM EST
Moon 6:46 AM EST (1/30) 6:12 PM EST (1/30)
Length of Visible Light 11h 37m
Length of Day
10h 48m
Waning Crescent, 0% of the Moon is Illuminated
Jan 30
Waning Crescent
Jan 30
New
Feb 6
First Quarter
Feb 14
Full
Feb 22
Last Quarter

Hourly Weather History & Observations

Time (EST) Temp. Windchill Dew Point Humidity Pressure Visibility Wind Dir Wind Speed Gust Speed Precip Events Conditions
12:15 AM 41.0 °F 36.4 °F 39.2 °F 93% 30.24 in 10.0 mi North 6.9 mph - 0.01 in Rain Light Rain
12:35 AM 39.2 °F 35.0 °F 39.2 °F 100% 30.24 in 7.0 mi North 5.8 mph - 0.04 in Rain Rain
12:55 AM 39.2 °F 32.0 °F 37.4 °F 93% 30.21 in 7.0 mi NNE 11.5 mph - 0.08 in Rain Light Rain
1:15 AM 39.2 °F 33.0 °F 37.4 °F 93% 30.23 in 7.0 mi North 9.2 mph - 0.02 in Rain Rain
1:35 AM 39.2 °F 33.6 °F 37.4 °F 93% 30.22 in 5.0 mi North 8.1 mph 16.1 mph 0.07 in Rain Rain
1:55 AM 39.2 °F 33.6 °F 37.4 °F 93% 30.21 in 10.0 mi NNE 8.1 mph - 0.09 in Rain Light Rain
2:15 AM 39.2 °F 35.0 °F 37.4 °F 93% 30.20 in 7.0 mi North 5.8 mph - 0.04 in Rain Rain
2:35 AM 37.4 °F 30.8 °F 37.4 °F 100% 30.21 in 10.0 mi North 9.2 mph - 0.07 in Rain Light Rain
2:55 AM 37.4 °F 29.8 °F 37.4 °F 100% 30.21 in 7.0 mi NNE 11.5 mph 16.1 mph 0.09 in Rain Heavy Rain
3:15 AM 37.4 °F 30.8 °F 37.4 °F 100% 30.21 in 7.0 mi North 9.2 mph - 0.02 in Rain Rain
3:35 AM 37.4 °F 30.3 °F 37.4 °F 100% 30.19 in 5.0 mi NNE 10.4 mph - 0.05 in Rain Rain
3:55 AM 37.4 °F 30.8 °F 37.4 °F 100% 30.21 in 10.0 mi North 9.2 mph - 0.07 in Rain Light Rain
4:15 AM 37.4 °F 30.3 °F 35.6 °F 93% 30.21 in 10.0 mi North 10.4 mph - N/A Rain Rain
4:35 AM 37.4 °F 30.3 °F 37.4 °F 100% 30.20 in 10.0 mi NNE 10.4 mph - 0.01 in   Drizzle
4:55 AM 37.4 °F 32.1 °F 37.4 °F 100% 30.19 in 10.0 mi NNE 6.9 mph - 0.01 in Rain Light Rain
5:15 AM 37.4 °F 31.4 °F 37.4 °F 100% 30.19 in 10.0 mi NNE 8.1 mph - 0.01 in Rain Light Rain
5:35 AM 37.4 °F 30.8 °F 37.4 °F 100% 30.19 in 10.0 mi NNE 9.2 mph - 0.01 in   Light Drizzle
5:55 AM 37.4 °F 31.4 °F 37.4 °F 100% 30.21 in 10.0 mi NNE 8.1 mph - 0.01 in   Overcast
6:15 AM 37.4 °F 30.8 °F 37.4 °F 100% 30.20 in 10.0 mi NE 9.2 mph - N/A Rain Light Rain
6:35 AM 37.4 °F 32.1 °F 37.4 °F 100% 30.19 in 10.0 mi NE 6.9 mph - N/A   Light Drizzle
6:55 AM 37.4 °F 32.1 °F 37.4 °F 100% 30.21 in 10.0 mi North 6.9 mph - N/A Rain Light Rain
7:15 AM 37.4 °F 30.8 °F 37.4 °F 100% 30.22 in 10.0 mi North 9.2 mph 16.1 mph 0.02 in Rain Light Rain
7:35 AM 37.4 °F 30.8 °F 37.4 °F 100% 30.22 in 7.0 mi North 9.2 mph 17.3 mph 0.02 in Rain Light Rain
7:55 AM 37.4 °F 29.8 °F 37.4 °F 100% 30.22 in 10.0 mi NNE 11.5 mph - 0.02 in   Overcast
8:15 AM 39.2 °F 33.6 °F 37.4 °F 93% 30.22 in 4.0 mi NNE 8.1 mph - 0.01 in   Heavy Drizzle
8:35 AM 39.2 °F 35.0 °F 37.4 °F 93% 30.22 in 5.0 mi NNE 5.8 mph - 0.02 in   Heavy Drizzle
8:55 AM 39.2 °F 35.0 °F 37.4 °F 93% 30.22 in 5.0 mi NNE 5.8 mph - 0.03 in   Drizzle
9:15 AM 39.2 °F 34.2 °F 39.2 °F 100% 30.23 in 7.0 mi NNE 6.9 mph - N/A   Overcast
9:35 AM 41.0 °F 37.1 °F 39.2 °F 93% 30.23 in 10.0 mi NNE 5.8 mph - N/A   Overcast
9:55 AM 41.0 °F 35.8 °F 39.2 °F 93% 30.24 in 10.0 mi NNE 8.1 mph - N/A   Overcast
10:15 AM 41.0 °F 35.8 °F 41.0 °F 100% 30.24 in 10.0 mi NNE 8.1 mph - N/A   Overcast
10:35 AM 41.0 °F 36.4 °F 41.0 °F 100% 30.24 in 10.0 mi North 6.9 mph - N/A   Overcast
10:55 AM 41.0 °F 35.2 °F 41.0 °F 100% 30.24 in 10.0 mi North 9.2 mph - N/A   Overcast
11:15 AM 41.0 °F 35.2 °F 41.0 °F 100% 30.25 in 10.0 mi NNE 9.2 mph - N/A   Overcast
11:35 AM 41.0 °F 36.4 °F 41.0 °F 100% 30.25 in 7.0 mi North 6.9 mph - N/A   Overcast
11:55 AM 41.0 °F 35.8 °F 41.0 °F 100% 30.23 in 5.0 mi NNE 8.1 mph - N/A   Drizzle
12:15 PM 41.0 °F 35.8 °F 41.0 °F 100% 30.22 in 4.0 mi North 8.1 mph - N/A   Light Drizzle
12:35 PM 41.0 °F 35.8 °F 41.0 °F 100% 30.21 in 5.0 mi North 8.1 mph - N/A   Overcast
12:55 PM 41.0 °F 35.2 °F 41.0 °F 100% 30.20 in 5.0 mi North 9.2 mph - N/A   Overcast
1:15 PM 41.0 °F 35.2 °F 41.0 °F 100% 30.18 in 3.0 mi North 9.2 mph - N/A   Overcast
1:35 PM 42.8 °F 39.3 °F 41.0 °F 93% 30.16 in 2.0 mi North 5.8 mph - N/A   Overcast
1:55 PM 42.8 °F 38.0 °F 41.0 °F 93% 30.17 in 3.0 mi NNE 8.1 mph - N/A   Overcast
2:15 PM 42.8 °F 38.6 °F 42.8 °F 100% 30.16 in 4.0 mi NNE 6.9 mph - N/A   Overcast
2:35 PM 42.8 °F 39.3 °F 42.8 °F 100% 30.16 in 3.0 mi North 5.8 mph - N/A   Overcast
2:55 PM 42.8 °F 40.1 °F 42.8 °F 100% 30.15 in 3.0 mi North 4.6 mph - N/A   Overcast
3:15 PM 44.6 °F 41.4 °F 42.8 °F 93% 30.16 in 5.0 mi NNE 5.8 mph - N/A   Overcast
3:35 PM 44.6 °F 41.4 °F 42.8 °F 93% 30.15 in 7.0 mi North 5.8 mph - N/A   Overcast
3:55 PM 44.6 °F 42.2 °F 42.8 °F 93% 30.15 in 5.0 mi North 4.6 mph - N/A   Overcast
4:15 PM 44.6 °F 41.4 °F 42.8 °F 93% 30.16 in 5.0 mi North 5.8 mph - N/A   Overcast
4:35 PM 44.6 °F 41.4 °F 42.8 °F 93% 30.15 in 4.0 mi NNE 5.8 mph - N/A   Overcast
4:55 PM 44.6 °F 41.4 °F 44.6 °F 100% 30.16 in 4.0 mi NNE 5.8 mph - N/A   Overcast
5:15 PM 44.6 °F 40.7 °F 44.6 °F 100% 30.16 in 10.0 mi NE 6.9 mph - N/A   Overcast
5:35 PM 44.6 °F 41.4 °F 44.6 °F 100% 30.17 in 10.0 mi NNE 5.8 mph - N/A   Overcast
5:55 PM 44.6 °F 40.2 °F 44.6 °F 100% 30.16 in 7.0 mi NE 8.1 mph - N/A   Overcast
6:15 PM 44.6 °F 40.7 °F 44.6 °F 100% 30.16 in 10.0 mi NNE 6.9 mph - N/A   Overcast
6:35 PM 44.6 °F 42.2 °F 44.6 °F 100% 30.17 in 7.0 mi North 4.6 mph - N/A   Overcast
6:55 PM 44.6 °F 39.7 °F 42.8 °F 93% 30.16 in 7.0 mi NE 9.2 mph - N/A   Overcast
7:15 PM 44.6 °F 41.4 °F 44.6 °F 100% 30.17 in 10.0 mi NNE 5.8 mph - N/A   Overcast
7:35 PM 44.6 °F 41.4 °F 44.6 °F 100% 30.18 in 10.0 mi North 5.8 mph - N/A   Overcast
7:55 PM 44.6 °F 40.7 °F 42.8 °F 93% 30.18 in 10.0 mi North 6.9 mph - N/A   Overcast
8:15 PM 44.6 °F 40.7 °F 42.8 °F 93% 30.17 in 7.0 mi NE 6.9 mph - N/A   Overcast
8:35 PM 44.6 °F 40.2 °F 42.8 °F 93% 30.16 in 7.0 mi NE 8.1 mph - N/A   Overcast
8:55 PM 44.6 °F 41.4 °F 42.8 °F 93% 30.17 in 7.0 mi North 5.8 mph - N/A   Overcast
9:15 PM 44.6 °F 42.2 °F 42.8 °F 93% 30.17 in 10.0 mi NNE 4.6 mph - N/A   Overcast
9:35 PM 44.6 °F 40.2 °F 42.8 °F 93% 30.15 in 7.0 mi NE 8.1 mph - N/A   Overcast
9:55 PM 44.6 °F 40.2 °F 42.8 °F 93% 30.14 in 7.0 mi ENE 8.1 mph - N/A   Overcast
10:15 PM 44.6 °F 43.1 °F 42.8 °F 93% 30.14 in 7.0 mi ENE 3.5 mph - N/A   Overcast
10:35 PM 44.6 °F 40.7 °F 42.8 °F 93% 30.16 in 10.0 mi North 6.9 mph - N/A   Overcast
10:55 PM 44.6 °F 41.4 °F 42.8 °F 93% 30.17 in 10.0 mi NNE 5.8 mph - N/A   Overcast
11:15 PM 44.6 °F 41.4 °F 42.8 °F 93% 30.16 in 10.0 mi NE 5.8 mph - N/A   Overcast
11:35 PM 44.6 °F 40.2 °F 42.8 °F 93% 30.17 in 7.0 mi NE 8.1 mph - N/A   Overcast
11:55 PM 44.6 °F 41.4 °F 42.8 °F 93% 30.15 in 7.0 mi NE 5.8 mph - N/A   Overcast